Flag for Australia Weather past 2 weeks in The Settlement, Christmas Island, Australia

Now
77 °F

Partly cloudy.


Feels Like: 78 °F
Forecast: 75 / 83 °F
Wind: 1 mph from Southeast

Location: Christmas Island Aerodrome


UV Index: 7 (High)

Visibility: N/A


Pressure: 29.83 "Hg

Humidity: 94%

Dew point: 75 °F

Location of The SettlementLocation

Historic Weather in The Settlement

°F

The Settlement temperature yesterday

Maximum temperature yesterday: 81 °F (at 9:00 AM)
Minimum temperature yesterday: 73 °F (at 1:00 AM)
Average temperature yesterday: 76 °F

Past Weeks' High & Low Weather Summary

 TemperatureHumidityPressure
High84 °F (Apr 2, 11:00 AM)100% (Apr 1, 5:00 PM)29.95 "Hg (Apr 1, 5:00 PM)
Low72 °F (Apr 11, 2:00 AM)74% (Apr 16, 9:00 AM)29.80 "Hg (Apr 1, 5:00 PM)
Average78 °F98%29.88 "Hg
* Reported Apr 1 5:00 PM — Apr 16 5:00 PM, The Settlement, Weather by CustomWeather, © 2014

Note: Actual official high and low records may vary slightly from our data, if they occured in-between our weather recording intervals... More about our weather records

Advertising

Historic Weather Conditions — Data for Previous 24 hours

 ConditionsComfort  
Time TempWeatherWind HumidityBarometerVisibility
5:00 PM
Apr 16
81 °FBroken clouds.3 mph79%29.83 "HgN/A
4:00 PM79 °FScattered clouds.1 mph89%29.83 "HgN/A
3:00 PM75 °FCloudy.10 mph94%29.83 "HgN/A
2:51 PM77 °FBroken clouds.9 mph89%29.83 "HgN/A
2:00 PM81 °FMostly cloudy.6 mph84%29.83 "HgN/A
1:56 PM81 °FMostly cloudy.7 mph84%29.86 "HgN/A
1:00 PM81 °FCloudy.5 mph79%29.86 "HgN/A
12:00 PM82 °FBroken clouds.7 mph74%29.89 "HgN/A
10:00 AM81 °FMostly cloudy.8 mph79%29.92 "HgN/A
9:00 AM82 °FScattered clouds.6 mph74%29.92 "HgN/A
8:00 AM81 °FScattered clouds.6 mph79%29.92 "HgN/A
6:00 AM73 °FPassing clouds.No wind100%29.89 "HgN/A
5:00 AM73 °FPassing clouds.3 mph100%29.86 "HgN/A
4:00 AM73 °FMild.No wind94%29.86 "HgN/A
2:00 AM73 °FMild.6 mph100%29.89 "HgN/A
1:00 AM73 °FMild.5 mph94%29.89 "HgN/A
12:00 AM73 °FMild.1 mph94%29.92 "HgN/A
10:00 PM
Apr 15
73 °FMild.No wind100%29.92 "HgN/A
9:00 PM73 °FMild.2 mph100%29.92 "HgN/A
8:00 PM75 °FMild.3 mph94%29.92 "HgN/A
6:00 PM75 °FPartly cloudy.5 mph94%29.86 "HgN/A
Weather by CustomWeather, © 2014

See weather overview